This is the latest recevied weather packets stored in our database for station/object KF6RAL-6. If no packets are shown the sender has not sent any weather packets the latest 10 day(s).
| Time | Temp. | Humidity | Pressure | Rain* | Wind** | Luminosity | Snow |
|---|---|---|---|---|---|---|---|
| 1788086717 | 18.33° C | 76% | 1014.5 hPa | 0 mm | - | - | - |
| 1788086296 | 18.33° C | 77% | 1014.3 hPa | 0 mm | - | - | - |
| 1788085875 | 17.78° C | 78% | 1014 hPa | 0 mm | - | - | - |
| 1788085454 | 17.78° C | 78% | 1014 hPa | 0 mm | - | - | - |
| 1788085033 | 17.78° C | 79% | 1013.8 hPa | 0 mm | - | - | - |
| 1788084612 | 17.22° C | 80% | 1014.3 hPa | 0 mm | - | - | - |
| 1788084191 | 17.22° C | 79% | 1014.5 hPa | 0.25 mm | - | - | - |
| 1788083770 | 17.22° C | 78% | 1014.4 hPa | 0.25 mm | - | - | - |
| 1788083350 | 17.78° C | 76% | 1013.9 hPa | 0.25 mm | - | - | - |
| 1788082928 | 17.78° C | 75% | 1014.1 hPa | 0.25 mm | - | - | - |
| 1788082507 | 18.33° C | 74% | 1014.2 hPa | 0.25 mm | - | - | - |
| 1788082085 | 18.33° C | 74% | 1014.3 hPa | 0.25 mm | - | - | - |
| 1788081664 | 18.89° C | 73% | 1014.1 hPa | 0.25 mm | - | - | - |
| 1788081244 | 19.44° C | 73% | 1014.2 hPa | 0.25 mm | - | - | - |
| 1788080824 | 18.89° C | 74% | 1014.4 hPa | 0.25 mm | - | - | - |
| 1788080401 | 18.89° C | 72% | 1014.2 hPa | 0 mm | - | - | - |
| 1788079559 | 19.44° C | 71% | 1014.5 hPa | 0 mm | - | - | - |
| 1788079138 | 20° C | 69% | 1014.9 hPa | 0 mm | - | - | - |
| 1788078717 | 21.11° C | 64% | 1015.2 hPa | 0 mm | - | - | - |
| 1788078296 | 21.11° C | 62% | 1015 hPa | 0 mm | - | - | - |
| 1788077876 | 21.11° C | 60% | 1014.1 hPa | 0 mm | - | - | - |
| 1788077454 | 21.11° C | 61% | 1014.1 hPa | 0 mm | - | - | - |
| 1788077033 | 21.11° C | 60% | 1013.8 hPa | 0 mm | - | - | - |
| 1788076614 | 21.11° C | 60% | 1013.6 hPa | 0 mm | - | - | - |
| 1788076191 | 21.11° C | 61% | 1014.2 hPa | 0 mm | - | - | - |
* Rain latest hour (hover to see other rain measurements)
** Current wind speed in m/s (hover to see current wind gust speed)